Погода в Томае

Молдова     46°11′18″N   28°45′58″E
темп.,
°C
ветер,
м/с
пор.,
м/с
влажн.,
%
обл.,
%
осадки,
мм/ч
давл.,
гПа
погр.,
м
16 июня, ср
ср1600:00+16с349548 0.6 100983
03:00+16ссв379597 0.7 1009201
06:00+15с2494100 0.1 1010147
09:00+17с358594 0.3 1011439
12:00+17с369164 1.8 1011349
15:00+23ссв466394 3.2 10111347
18:00+22ссв686892 3.7 10111060
21:00+19ссв5108479 4.8 1012350
17 июня, чт
чт1700:00+16с51092100 2.6 1013284
03:00+16ссз4994100 5.1 1013307
06:00+16с499527 1.7 1014292
09:00+20с677781 1.8 1015735
12:00+23ссз7768100 0.1 10161237
15:00+25ссв6755100 0.4 10151598
18:00+20ссв51085100 0.1 1016443
21:00+19ссз51280100 0.2 1017419
18 июня, пт
пт1800:00+19с51091100 2.1 1017353
03:00+18с61191100 2.1 1016346
06:00+19с61293100 0.0 1016397
09:00+19ссв8139098 0.1 1016744
12:00+20ссв81184100 0.3 1016899
15:00+24св9116666 0.9 10151371
18:00+23св812695 0.9 10141355
21:00+20всв7138026 1.4 1016647
19 июня, сб
сб1900:00+18св6129015 0.0 1016490
03:00+17св71389100 0.0 1016613
06:00+17св8139497 1.1 1016679
09:00+17св81394100 5.9 1016603
12:00+17всв61094100 4.3 1017678
15:00+17всв5993100 6.2 1017552
18:00+18ссв489397 1.5 1016310
21:00+17ссз489569 3.8 1016206
20 июня, вс
вс2000:00+16ссз489747 1.2 1017162
03:00+16с489670 2.9 1016146
06:00+16с499571 0.3 1016200
09:00+20ссв6985100 0.4 1016371
12:00+24св576435 0.3 1015855
15:00+26св565566 0.3 10141630
18:00+25св356050 0.0 1013662
21:00+21св23764 0.2 101331